EHI
0 0 0 0 0 0 0 0 0 0 0 0 0 0 0 0 0 0 0 0 0 0 0 0 0 0 0 0 0 0 0 0 0 0 0 0 0 0 0 0 0 0 0
0 0 0 0 0 0 0 0 0 0 0 0 0 0 0 0 0 0 0 0 0 0 0 0 0 0 0 0 0 0 0 0 0 0 0 0 0 0 0 0 0 0 0
0 0 0 0 0 0 0 0 0 0 0 0 0 0 0 0 0 0 0 0 0 0 0 0 0 0 0 0 0 0 0 0 0 0 0 0 0 0 0 0 0 0 0
0 0 0 0 0 0 0 0 0 0 0 0 0 0 0 0 0 0 0 0 0 0 0 0 0 0 0 0 0 0 0 0 0 0 0 0 0 0 0 0 0 0 0
0 0 0 0 0 0 0 0 0 0 0 0 0 0 0 0 0 0 0 0 0 0 0 0 0 0 0 0 0 0 0 0 0 0 0 0 0 0 0 0 0 0 0
0 0 0 0 0 0 0 0 0 0 0 0 0 0 0 0 0 0 0 0 0 0 0 0 0 0 0 0 0 0 0 0 0 0 0 0 0 0 0 0 0 0 0
0 0 0 0 0 0 0 0 0 0 0 0 0 0 0 0 0 0 0 0 0 0 0 0 0 0 0 0 0 0 0 0 0 0 0 0 0 0 0 0 0 0 0
0 0 0 0 0 0 0 0 0 0 0 0 0 0 0 0 0 0 0 0 0 0 0 0 0 0 0 0 0 0 0 0 0 0 0 0 0 0 0 0 0 0 0
0 0 0 0 0 0 0 0 0 0 0 0 0 0 0 0 0 0 0 0 0 0 0 0 0 0 0 0 0 0 0 0 0 0 0 0 0 0 0 0 0 0 0
0 0 0 0 0 0 0 0 0 0 0 0 0 0 0 0 0 0 0 0 0 0 0 0 0 0 0 0 0 0 0 0 0 0 0 0 0 0 0 0 0 0 0
0 0 0 0 0 0 0 0 0 0 0 0 0 0 0 0 0 0 0 0 0 0 0 0 0 0 0 0 0 0 0 0 0 0 0 0 0 0 0 0 0 0 0
0 0 0 0 0 0 0 0 0 0 0 0 0 0 0 0 0 0 0 0 0 0 0 0 0 0 0 0 0 0 0 0 0 0 0 0 0 0 0 0 0 0 0
0 0 0 0 0 0 0 0 0 0 0 0 0 0 0 0 0 0 0 0 0 0 0 0 0 0 0 0 0 0 0 0 0 0 0 0 0 0 0 0 0 0 0
0 0 0 0 0 0 0 0 0 0 0 0 0 0 0 0 0 0 0 0 0 0 0 0 0 0 0 0 0 0 0 0 0 0 0 0 0 0 0 0 0 0 0
0 0 0 0 0 0 0 0 0 0 0 0 0 0 0 0 0 0 0 0 0 0 0 0 0 0 0 0 0 0 0 0 0 0 0 0 0 0 0 0 0 0 0
0 0 0 0 0 0 0 0 0 0 0 0 0 0 0 0 0 0 0 0 0 0 0 0 0 0 0 0 0 0 0 0 0 0 0 0 0 0 0 0 0 0 0
0 0 0 0 0 0 0 0 0 0 0 0 0 0 0 0 0 0 0 0 0 0 0 0 0 0 0 0 0 0 0 0 0 0 0 0 0 0 0 0 0 0 0
0 0 0 0 0 0 0 0 0 0 0 0 0 0 0 0 0 0 0 0 0 0 0 0 0 0 0 0 0 0 0 0 0 0 0 0 0 0 0 0 0 0 0
0 0 0 0 0 0 0 0 0 0 0 0 0 0 0 0 0 0 0 0 0 0 0 0 0 0 0 0 0 0 0 0 0 0 0 0 0 0 0 0 0 0 0
0 0 0 0 0 0 0 0 0 0 0 0 0 0 0 0 0 0 0 0 0 0 0 0 0 0 0 0 0 0 0 0 0 0 0 0 0 0 0 0 0 0 0
0 0 0 0 0 0 0 0 0 0 0 0 0 0 0 0 0 0 0 0 0 0 0 0 0 0 0 0 0 0 0 0 0 0 0 0 0 0 0 0 0 0 0
0 0 0 0 0 0 0 0 0 0 0 0 0 0 0 0 0 0 0 0 0 0 0 0 0 0 0 0 0 0 0 0 0 0 0 0 0 0 0 0 0 0 0
0 0 0 0 0 0 0 0 0 0 0 0 0 0 0 0 0 0 0 0 0 0 0 0 0 0 0 0 0 0 0 0 0 0 0 0 0 0 0 0 0 0 0
0 0 0 0 0 0 0 0 0 0 0 0 0 0 0 0 0 0 0 0 0 0 0 0 0 0 0 0 0 0 0 0 0 0 0 0 0 0 0 0 0 0 0
0 0 0 0 0 0 0 0 0 0 0 0 0 0 0 0 0 0 0 0 0 0 0 0 0 0 0 0 0 0 0 0 0 0 0 0 0 0 0 0 0 0 0
0 0 0 0 0 0 0 0 0 0 0 0 0 0 0 0 0 0 0 0 0 0 0 0 0 0 0 0 0 0 0 0 0 0 0 0 0 0 0 0 0 0 0
Wind_Speed
2 2 1 1 2 1 2 2 2 2 2 3 3 3 3 3 3 2 2 4 3 1 2 2 3 4 5 5 5 7 7 7 7 7 7 7 7 7 7 7 7 7 7
1 1 1 1 1 1 1 1 2 2 1 2 2 3 2 2 2 3 2 3 4 2 1 2 3 3 4 5 5 7 7 7 7 7 7 6 6 6 6 6 6 6 6
1 1 1 1 1 1 1 1 2 2 2 2 2 2 2 2 2 3 2 2 2 4 2 1 2 2 3 4 5 6 7 7 7 7 6 6 5 5 5 6 6 5 5
1 1 1 1 1 1 1 1 1 1 1 1 1 1 2 2 2 2 2 2 2 2 3 3 2 1 1 3 4 5 6 7 7 6 6 5 5 5 5 4 4 4 4
1 1 1 1 1 1 0 1 1 1 1 1 1 1 1 1 1 2 2 1 1 2 2 3 3 3 1 1 2 3 5 6 6 6 6 6 5 5 5 4 4 4 4
1 1 1 1 1 1 1 1 1 1 1 1 1 2 1 1 1 1 1 1 1 1 2 2 2 2 2 1 1 3 4 6 6 6 6 6 5 4 4 5 4 4 4
1 1 1 1 0 0 0 1 1 1 1 0 1 1 2 1 0 0 0 0 1 1 1 1 1 1 1 2 1 2 3 5 6 6 5 5 5 5 4 4 5 4 4
0 0 1 1 0 0 1 1 1 0 0 0 1 1 1 2 1 1 0 0 0 0 1 1 1 1 1 1 1 1 2 4 5 6 5 5 5 5 5 4 5 4 4
0 1 1 1 1 1 2 1 1 1 1 1 0 1 2 2 1 1 1 0 0 0 0 0 1 1 1 1 1 1 1 3 5 5 5 6 5 5 5 5 4 4 3
1 1 1 1 2 2 2 2 1 1 2 1 1 1 1 1 1 1 2 1 0 1 1 1 1 1 1 0 1 1 1 1 4 5 5 5 6 6 5 5 5 4 3
1 1 1 1 2 2 3 3 2 2 2 2 2 1 1 0 1 2 2 1 1 1 1 1 1 1 1 0 0 1 0 1 2 4 4 5 5 5 5 5 5 4 4
1 2 2 2 2 2 3 3 3 3 3 2 2 2 2 2 2 2 2 2 2 2 2 1 1 2 1 1 0 1 1 2 2 3 3 4 4 4 5 5 5 4 4
2 2 2 2 2 2 3 3 3 4 4 3 3 3 2 2 2 2 2 2 2 2 2 1 2 2 1 1 1 1 2 2 2 2 3 3 4 4 4 5 5 4 4
3 3 3 3 3 3 3 3 2 3 3 4 4 3 2 2 2 3 3 2 2 2 2 2 1 2 2 1 1 1 1 2 2 3 2 3 3 3 3 4 4 4 4
3 3 3 3 3 3 3 3 3 3 3 4 4 4 3 3 2 2 2 3 3 3 3 2 1 1 1 1 1 1 1 3 3 2 2 2 2 3 3 3 3 4 4
4 4 4 4 4 4 3 3 3 3 4 4 3 4 4 3 3 2 2 2 3 3 3 2 2 1 2 2 3 2 2 3 3 3 2 2 2 3 4 4 3 3 3
4 4 4 4 4 4 4 4 4 4 5 4 4 4 5 4 3 3 3 3 3 2 3 3 2 1 2 2 2 2 2 3 3 4 3 2 3 3 4 4 4 3 3
4 4 4 5 5 5 4 5 5 5 5 5 5 5 5 4 4 3 3 4 4 3 3 4 2 2 2 3 2 2 2 2 2 3 4 4 3 3 3 4 4 4 3
4 4 4 4 5 5 5 5 6 6 6 5 5 5 5 5 5 4 4 4 3 3 2 3 3 2 2 2 2 2 2 2 2 2 3 4 3 4 3 4 5 5 4
4 4 4 5 5 5 5 5 5 5 5 5 5 5 5 6 6 5 4 4 3 3 3 3 3 2 2 2 2 2 2 1 2 2 2 2 3 3 4 5 5 5 5
4 4 4 4 4 5 5 5 5 5 5 5 5 5 6 7 8 6 5 5 4 4 3 4 3 3 3 2 3 2 2 1 2 2 1 2 2 2 2 4 6 6 6
4 4 4 4 5 5 7 9 6 4 5 5 5 5 5 6 7 9 9 8 7 6 5 4 4 4 4 4 2 3 3 2 2 1 1 2 2 2 3 3 6 7 7
4 4 4 4 5 6 8 8 8 4 4 4 5 4 4 5 6 5 7 8 8 9 9 6 5 6 5 5 4 4 4 3 3 2 1 3 2 3 2 3 6 7 7
4 4 4 4 4 5 8 8 7 4 3 4 5 5 5 5 5 6 5 5 5 6 7 5 6 6 6 5 5 4 3 2 1 2 2 3 2 3 3 3 6 8 8
4 4 4 4 4 5 8 8 6 3 3 4 4 4 5 5 8 8 6 5 5 4 5 7 7 7 8 8 5 3 3 3 3 3 2 3 2 2 2 2 4 6 6
4 4 4 4 4 5 7 7 5 2 3 3 3 4 7 7 9 8 6 6 6 5 4 3 4 5 5 5 7 6 5 5 3 3 3 3 2 1 2 2 2 2 3
Wind_Direction
61 43 28 28 33 40 51 48 53 51 48 40 38 38 29 15 359 355 345 358 353 289 196 183 175 171 165 159 154 149 140 134 131 132 131 127 122 118 113 109 108 105 104
72 56 36 26 27 31 41 59 61 60 44 40 35 28 19 5 358 353 348 345 351 336 254 213 204 189 180 174 162 160 154 148 142 137 133 132 129 127 123 116 112 109 107
74 70 56 32 8 20 60 71 62 67 61 44 31 14 8 4 355 346 343 342 343 345 340 287 237 200 182 178 170 167 163 156 148 143 143 141 140 137 134 128 119 115 115
72 80 66 27 353 0 81 106 92 78 54 41 26 360 352 346 346 339 344 348 348 343 348 1 346 293 203 188 175 171 172 161 156 151 147 146 150 147 142 137 132 125 120
72 89 84 21 11 29 36 107 83 102 94 44 6 356 353 337 325 335 342 341 347 346 343 350 359 352 322 236 187 183 173 163 158 157 157 154 152 153 157 156 146 138 128
72 84 88 43 26 57 30 49 98 80 121 112 9 354 336 313 310 330 311 324 359 8 4 1 357 350 355 316 219 203 183 174 170 165 162 157 157 159 156 164 156 146 137
83 118 107 96 58 99 71 46 64 100 64 83 53 3 340 327 316 302 304 326 357 353 8 13 1 355 346 349 292 223 204 193 182 174 169 167 168 167 163 176 176 164 157
1 167 151 171 191 123 102 87 73 113 266 74 114 101 332 332 344 345 324 236 322 3 3 8 6 7 6 357 343 249 218 214 192 184 183 181 181 179 173 175 172 166 162
338 314 224 187 192 181 188 199 195 172 216 264 203 159 172 228 307 311 283 255 326 356 315 344 0 335 344 358 315 301 220 218 207 197 197 194 191 189 184 183 181 182 162
304 316 287 225 205 199 194 211 218 228 193 228 270 244 201 176 180 289 297 280 293 290 280 308 306 287 288 322 337 7 2 250 221 208 204 203 201 199 194 191 183 180 167
292 302 281 262 231 222 209 208 219 223 213 216 220 229 227 240 207 196 253 275 301 277 268 261 267 257 238 191 258 319 351 287 235 220 214 212 210 205 200 195 193 192 190
279 285 273 260 253 243 227 220 216 217 222 227 227 227 217 210 202 198 224 256 268 268 275 246 233 236 224 212 241 333 265 243 243 228 225 214 210 210 212 207 205 201 199
266 265 270 262 262 260 248 236 221 224 222 226 227 234 238 236 218 212 217 240 268 282 259 235 223 216 216 210 228 308 260 232 230 230 219 220 213 212 215 212 214 209 208
254 254 254 260 265 261 257 246 235 236 232 232 237 236 238 240 231 223 214 200 248 269 245 234 229 217 205 199 227 299 258 240 234 243 227 227 225 209 212 217 219 213 215
262 256 249 253 258 257 252 244 239 236 233 233 235 237 241 241 236 236 235 215 200 223 241 228 222 221 234 208 218 224 251 237 230 235 235 227 227 208 204 213 220 220 221
268 258 252 251 254 253 250 242 247 240 234 236 230 228 236 237 232 229 227 239 232 221 239 233 235 266 260 258 240 220 235 250 228 223 230 230 225 217 203 204 211 218 221
268 262 253 250 249 250 246 241 242 238 235 240 233 225 231 229 223 223 219 222 230 225 240 268 277 283 260 245 244 226 232 226 223 222 221 228 227 222 211 202 207 211 222
265 263 261 255 250 246 241 238 240 238 232 235 234 229 232 229 222 222 220 222 219 219 225 250 264 264 255 240 236 230 242 235 221 222 222 229 234 227 228 212 207 212 223
269 269 264 262 260 252 244 240 235 235 233 233 228 227 229 223 223 223 225 224 222 221 217 229 249 257 261 246 230 238 234 226 234 227 225 226 228 232 243 224 211 216 225
268 266 264 261 263 262 254 244 236 233 233 234 229 229 228 225 224 217 225 220 218 218 211 217 230 236 245 239 210 214 231 213 235 237 228 228 234 249 253 235 220 222 227
270 267 266 266 266 263 256 249 241 230 226 229 231 231 232 230 231 226 225 215 209 212 213 217 225 231 227 214 212 207 219 210 248 221 200 223 227 238 248 242 229 226 228
276 271 263 262 263 266 269 263 250 232 225 223 230 234 235 236 237 239 241 235 225 219 215 217 223 226 232 225 213 212 198 194 243 207 188 249 218 239 246 237 237 230 227
277 272 267 262 263 267 273 270 261 242 223 224 226 230 237 236 236 235 242 245 243 239 232 225 225 227 228 219 206 216 209 207 229 205 195 259 228 240 253 257 248 234 229
274 272 272 265 269 274 279 272 266 249 226 226 225 224 231 236 233 231 230 235 239 240 234 227 225 234 233 219 213 215 209 209 258 233 204 240 243 246 263 257 257 239 231
278 276 277 274 273 277 276 272 266 237 233 238 236 230 232 235 240 238 230 227 237 249 251 243 239 241 242 241 226 187 188 196 233 241 210 215 234 260 264 260 257 242 233
278 276 277 273 267 272 276 273 267 234 231 239 244 239 240 242 244 240 225 220 229 235 230 241 239 241 242 241 234 213 202 204 211 231 206 192 213 219 268 259 257 237 232